Time,TemperatureF,DewpointF,PressureIn,WindDirection,WindDirectionDegrees,WindSpeedMPH,WindSpeedGustMPH,Humidity,HourlyPrecipIn,Conditions,Clouds,dailyrainin,SoftwareType,DateUTC
2013-12-09 00:01:00,76.8,70.5,30.16,ESE,102,1.0,11.0,81,0.00,,,0.00,meteohub,2013-12-09 05:01:00,
2013-12-09 00:03:00,76.8,70.5,30.16,East,99,1.0,11.0,81,0.00,,,0.00,meteohub,2013-12-09 05:03:00,
2013-12-09 00:08:00,76.8,70.5,30.16,South,175,6.0,11.0,81,0.00,,,0.00,meteohub,2013-12-09 05:08:00,
2013-12-09 00:13:00,76.8,70.5,30.16,ESE,117,2.0,9.0,81,0.00,,,0.00,meteohub,2013-12-09 05:13:00,
2013-12-09 00:18:00,76.8,70.2,30.16,NNE,14,4.0,11.0,80,0.00,,,0.00,meteohub,2013-12-09 05:18:00,
2013-12-09 00:23:00,76.8,70.2,30.15,East,94,0.0,11.0,80,0.00,,,0.00,meteohub,2013-12-09 05:23:00,
2013-12-09 00:28:00,76.8,70.2,30.15,South,173,2.0,11.0,80,0.00,,,0.00,meteohub,2013-12-09 05:28:00,
2013-12-09 00:33:00,76.8,70.2,30.15,SSE,159,5.0,9.0,80,0.00,,,0.00,meteohub,2013-12-09 05:33:00,
2013-12-09 00:38:00,77.2,70.5,30.15,ESE,123,3.0,10.0,80,0.00,,,0.00,meteohub,2013-12-09 05:38:00,
2013-12-09 00:43:00,77.2,70.5,30.15,ENE,63,2.0,10.0,80,0.00,,,0.00,meteohub,2013-12-09 05:43:00,
2013-12-09 00:48:00,77.2,70.5,30.15,ESE,103,4.0,10.0,80,0.00,,,0.00,meteohub,2013-12-09 05:48:00,
2013-12-09 00:53:00,77.2,70.2,30.15,ESE,120,2.0,10.0,79,0.00,,,0.00,meteohub,2013-12-09 05:53:00,
2013-12-09 00:58:00,77.2,70.5,30.15,SW,215,1.0,10.0,80,0.00,,,0.00,meteohub,2013-12-09 05:58:00,
2013-12-09 01:03:00,77.2,70.5,30.15,SSE,157,8.0,10.0,80,0.00,,,0.00,meteohub,2013-12-09 06:03:00,
2013-12-09 01:08:00,77.0,70.3,30.15,ESE,122,1.0,10.0,80,0.00,,,0.00,meteohub,2013-12-09 06:08:00,
2013-12-09 01:13:00,77.0,70.3,30.15,SSE,168,0.0,10.0,80,0.00,,,0.00,meteohub,2013-12-09 06:13:00,
2013-12-09 01:18:00,77.0,70.3,30.15,South,170,2.0,10.0,80,0.00,,,0.00,meteohub,2013-12-09 06:18:00,
2013-12-09 01:23:00,77.0,70.3,30.15,SE,130,0.0,9.0,80,0.00,,,0.00,meteohub,2013-12-09 06:23:00,
2013-12-09 01:28:00,77.0,70.3,30.14,SW,219,5.0,10.0,80,0.00,,,0.00,meteohub,2013-12-09 06:28:00,
2013-12-09 01:33:00,77.0,70.7,30.14,SE,130,1.0,10.0,81,0.00,,,0.00,meteohub,2013-12-09 06:33:00,
2013-12-09 01:38:00,76.8,70.5,30.14,SSE,152,6.0,10.0,81,0.00,,,0.00,meteohub,2013-12-09 06:38:00,
2013-12-09 01:43:00,76.8,70.5,30.14,SE,131,0.0,10.0,81,0.00,,,0.00,meteohub,2013-12-09 06:43:00,
2013-12-09 01:48:00,76.6,70.3,30.14,South,171,5.0,7.0,81,0.00,,,0.00,meteohub,2013-12-09 06:48:00,
2013-12-09 01:53:00,76.6,70.3,30.14,SE,132,3.0,7.0,81,0.00,,,0.00,meteohub,2013-12-09 06:53:00,
2013-12-09 01:58:00,76.6,70.0,30.14,SE,132,0.0,10.0,80,0.00,,,0.00,meteohub,2013-12-09 06:58:00,
2013-12-09 02:03:00,76.6,70.3,30.14,ESE,119,3.0,13.0,81,0.00,,,0.00,meteohub,2013-12-09 07:03:00,
2013-12-09 02:09:00,76.5,70.2,30.14,SE,128,3.0,13.0,81,0.00,,,0.00,meteohub,2013-12-09 07:09:00,
2013-12-09 02:14:00,76.5,70.2,30.14,SSW,196,3.0,13.0,81,0.00,,,0.00,meteohub,2013-12-09 07:14:00,
2013-12-09 02:19:00,76.5,70.2,30.14,SSE,150,0.0,10.0,81,0.00,,,0.00,meteohub,2013-12-09 07:19:00,
2013-12-09 02:24:00,76.5,70.5,30.14,SE,134,6.0,10.0,82,0.00,,,0.00,meteohub,2013-12-09 07:24:00,
2013-12-09 02:29:00,76.5,70.5,30.14,SSE,161,0.0,10.0,82,0.00,,,0.00,meteohub,2013-12-09 07:29:00,
2013-12-09 02:34:00,76.3,70.3,30.14,ESE,119,4.0,10.0,82,0.00,,,0.00,meteohub,2013-12-09 07:34:00,
2013-12-09 02:39:00,76.5,70.5,30.14,South,179,4.0,8.0,82,0.00,,,0.00,meteohub,2013-12-09 07:39:00,
2013-12-09 02:44:00,76.5,70.9,30.14,SSW,194,4.0,8.0,83,0.00,,,0.00,meteohub,2013-12-09 07:44:00,
2013-12-09 02:49:00,76.5,70.5,30.14,ESE,116,2.0,8.0,82,0.00,,,0.00,meteohub,2013-12-09 07:49:00,
2013-12-09 02:54:00,76.5,70.5,30.14,SE,132,4.0,9.0,82,0.00,,,0.00,meteohub,2013-12-09 07:54:00,
2013-12-09 02:59:00,76.5,70.2,30.14,ESE,110,2.0,9.0,81,0.00,,,0.00,meteohub,2013-12-09 07:59:00,
2013-12-09 03:04:00,76.5,70.2,30.14,ESE,109,1.0,9.0,81,0.00,,,0.00,meteohub,2013-12-09 08:04:00,
2013-12-09 03:09:00,76.3,70.0,30.14,East,93,2.0,8.0,81,0.00,,,0.00,meteohub,2013-12-09 08:09:00,
2013-12-09 03:14:00,76.3,70.3,30.14,SE,125,2.0,8.0,82,0.00,,,0.00,meteohub,2013-12-09 08:14:00,
2013-12-09 03:19:00,76.3,70.0,30.14,South,169,2.0,9.0,81,0.00,,,0.00,meteohub,2013-12-09 08:19:00,
2013-12-09 03:24:00,76.1,69.8,30.14,South,178,5.0,9.0,81,0.00,,,0.00,meteohub,2013-12-09 08:24:00,
2013-12-09 03:29:00,76.1,69.8,30.14,SSE,152,3.0,9.0,81,0.00,,,0.00,meteohub,2013-12-09 08:29:00,
2013-12-09 03:34:00,76.1,70.2,30.14,SSE,159,2.0,9.0,82,0.00,,,0.00,meteohub,2013-12-09 08:34:00,
2013-12-09 03:39:00,75.9,70.0,30.14,SE,125,2.0,7.0,82,0.00,,,0.00,meteohub,2013-12-09 08:39:00,
2013-12-09 03:44:00,75.9,70.0,30.14,SE,133,4.0,7.0,82,0.00,,,0.00,meteohub,2013-12-09 08:44:00,
2013-12-09 03:49:00,75.9,70.3,30.14,SW,225,1.0,7.0,83,0.00,,,0.00,meteohub,2013-12-09 08:49:00,
2013-12-09 03:54:00,75.9,70.0,30.14,SE,143,2.0,8.0,82,0.00,,,0.00,meteohub,2013-12-09 08:54:00,
2013-12-09 03:57:00,75.9,70.3,30.14,SSE,166,1.0,8.0,83,0.00,,,0.00,meteohub,2013-12-09 08:57:00,
2013-12-09 04:02:00,76.1,70.2,30.14,ESE,110,2.0,8.0,82,0.00,,,0.00,meteohub,2013-12-09 09:02:00,
2013-12-09 04:07:00,76.3,70.0,30.15,SE,126,2.0,8.0,81,0.00,,,0.00,meteohub,2013-12-09 09:07:00,
2013-12-09 04:12:00,76.3,70.3,30.15,ESE,106,4.0,10.0,82,0.00,,,0.00,meteohub,2013-12-09 09:12:00,
2013-12-09 04:17:00,76.3,70.0,30.15,South,185,1.0,10.0,81,0.00,,,0.00,meteohub,2013-12-09 09:17:00,
2013-12-09 04:22:00,76.3,70.3,30.15,SSE,161,2.0,10.0,82,0.00,,,0.00,meteohub,2013-12-09 09:22:00,
2013-12-09 04:27:00,76.3,70.3,30.15,South,185,0.0,8.0,82,0.00,,,0.00,meteohub,2013-12-09 09:27:00,
2013-12-09 04:32:00,76.3,70.0,30.15,ESE,102,3.0,7.0,81,0.00,,,0.00,meteohub,2013-12-09 09:32:00,
2013-12-09 04:37:00,76.3,70.3,30.15,South,171,0.0,7.0,82,0.00,,,0.00,meteohub,2013-12-09 09:37:00,
2013-12-09 04:42:00,76.3,70.3,30.15,South,188,1.0,8.0,82,0.00,,,0.00,meteohub,2013-12-09 09:42:00,
2013-12-09 04:47:00,76.3,70.3,30.15,SSE,163,3.0,8.0,82,0.00,,,0.00,meteohub,2013-12-09 09:47:00,
2013-12-09 04:52:00,76.1,70.2,30.15,ESE,122,0.0,8.0,82,0.00,,,0.00,meteohub,2013-12-09 09:52:00,
2013-12-09 04:57:00,76.1,69.8,30.15,ESE,114,2.0,6.0,81,0.00,,,0.00,meteohub,2013-12-09 09:57:00,
2013-12-09 05:03:00,76.1,69.8,30.15,South,182,2.0,7.0,81,0.00,,,0.00,meteohub,2013-12-09 10:03:00,
2013-12-09 05:08:00,76.1,69.4,30.15,SSE,150,1.0,7.0,80,0.00,,,0.00,meteohub,2013-12-09 10:08:00,
2013-12-09 05:13:00,76.3,70.0,30.15,ESE,107,0.0,8.0,81,0.00,,,0.00,meteohub,2013-12-09 10:13:00,
2013-12-09 05:18:00,76.3,70.0,30.15,ESE,109,1.0,8.0,81,0.00,,,0.00,meteohub,2013-12-09 10:18:00,
2013-12-09 05:23:00,76.3,69.6,30.16,ESE,115,1.0,8.0,80,0.00,,,0.00,meteohub,2013-12-09 10:23:00,
2013-12-09 05:28:00,76.3,70.0,30.15,SSW,205,3.0,6.0,81,0.00,,,0.00,meteohub,2013-12-09 10:28:00,
2013-12-09 05:33:00,76.5,70.2,30.16,South,177,3.0,9.0,81,0.00,,,0.00,meteohub,2013-12-09 10:33:00,
2013-12-09 05:38:00,76.5,69.8,30.15,East,86,2.0,9.0,80,0.00,,,0.00,meteohub,2013-12-09 10:38:00,
2013-12-09 05:43:00,76.3,69.6,30.16,SE,126,2.0,9.0,80,0.00,,,0.00,meteohub,2013-12-09 10:43:00,
2013-12-09 05:48:00,76.3,70.0,30.16,South,171,4.0,9.0,81,0.00,,,0.00,meteohub,2013-12-09 10:48:00,
2013-12-09 05:53:00,76.3,69.6,30.16,SSE,153,0.0,9.0,80,0.00,,,0.00,meteohub,2013-12-09 10:53:00,
2013-12-09 05:58:00,76.1,69.1,30.16,SSW,197,2.0,7.0,79,0.00,,,0.00,meteohub,2013-12-09 10:58:00,
2013-12-09 06:00:00,76.3,69.3,30.16,SSE,159,1.0,8.0,79,0.00,,,0.00,meteohub,2013-12-09 11:00:00,
2013-12-09 06:05:00,76.3,69.3,30.16,SSE,168,1.0,8.0,79,0.00,,,0.00,meteohub,2013-12-09 11:05:00,
2013-12-09 06:10:00,76.3,69.3,30.16,SSE,148,0.0,8.0,79,0.00,,,0.00,meteohub,2013-12-09 11:10:00,
2013-12-09 06:15:00,76.3,69.3,30.17,SE,137,0.0,8.0,79,0.00,,,0.00,meteohub,2013-12-09 11:15:00,
2013-12-09 06:20:00,76.3,68.9,30.17,South,186,1.0,8.0,78,0.00,,,0.00,meteohub,2013-12-09 11:20:00,
2013-12-09 06:25:00,76.3,68.9,30.17,SE,129,4.0,10.0,78,0.00,,,0.00,meteohub,2013-12-09 11:25:00,
2013-12-09 06:30:00,76.3,69.3,30.17,ESE,120,1.0,10.0,79,0.00,,,0.00,meteohub,2013-12-09 11:30:00,
2013-12-09 06:35:00,76.3,69.3,30.17,SE,142,2.0,10.0,79,0.00,,,0.00,meteohub,2013-12-09 11:35:00,
2013-12-09 06:40:00,76.3,69.3,30.17,ESE,121,1.0,10.0,79,0.00,,,0.00,meteohub,2013-12-09 11:40:00,
2013-12-09 06:45:00,76.3,69.3,30.17,SW,222,6.0,10.0,79,0.00,,,0.00,meteohub,2013-12-09 11:45:00,
2013-12-09 06:50:00,76.1,69.1,30.17,SSW,211,5.0,10.0,79,0.00,,,0.00,meteohub,2013-12-09 11:50:00,
2013-12-09 06:55:00,76.1,69.4,30.17,East,98,1.0,8.0,80,0.00,,,0.00,meteohub,2013-12-09 11:55:00,
2013-12-09 07:00:00,75.9,69.3,30.17,SE,130,1.0,8.0,80,0.00,,,0.00,meteohub,2013-12-09 12:00:00,
2013-12-09 07:05:00,75.9,68.9,30.17,SE,130,4.0,8.0,79,0.00,,,0.00,meteohub,2013-12-09 12:05:00,
2013-12-09 07:10:00,75.9,68.9,30.17,South,182,1.0,8.0,79,0.00,,,0.00,meteohub,2013-12-09 12:10:00,
2013-12-09 07:15:00,75.9,69.3,30.18,SSW,202,3.0,8.0,80,0.00,,,0.00,meteohub,2013-12-09 12:15:00,
2013-12-09 07:20:00,75.9,68.9,30.18,ESE,114,0.0,8.0,79,0.00,,,0.00,meteohub,2013-12-09 12:20:00,
2013-12-09 07:25:00,75.9,68.9,30.18,SE,132,1.0,7.0,79,0.00,,,0.00,meteohub,2013-12-09 12:25:00,
2013-12-09 07:30:00,75.9,68.2,30.18,SSE,165,3.0,7.0,77,0.00,,,0.00,meteohub,2013-12-09 12:30:00,
2013-12-09 07:35:00,75.9,67.8,30.18,ESE,122,2.0,7.0,76,0.00,,,0.00,meteohub,2013-12-09 12:35:00,
2013-12-09 07:40:00,76.3,68.9,30.18,East,101,6.0,8.0,78,0.00,,,0.00,meteohub,2013-12-09 12:40:00,
2013-12-09 07:45:00,76.5,69.1,30.18,ESE,117,2.0,8.0,78,0.00,,,0.00,meteohub,2013-12-09 12:45:00,
2013-12-09 07:50:00,76.6,68.9,30.18,SE,130,0.0,8.0,77,0.00,,,0.00,meteohub,2013-12-09 12:50:00,
2013-12-09 07:55:00,76.8,69.1,30.18,SSW,213,1.0,6.0,77,0.00,,,0.00,meteohub,2013-12-09 12:55:00,
2013-12-09 08:00:00,77.2,69.1,30.18,SE,144,2.0,6.0,76,0.00,,,0.00,meteohub,2013-12-09 13:00:00,
2013-12-09 08:05:00,77.5,68.9,30.18,SE,142,1.0,9.0,75,0.00,,,0.00,meteohub,2013-12-09 13:05:00,
2013-12-09 08:10:00,77.7,68.4,30.18,ESE,107,5.0,9.0,73,0.00,,,0.00,meteohub,2013-12-09 13:10:00,
2013-12-09 08:15:00,78.1,69.1,30.18,SE,132,0.0,10.0,74,0.00,,,0.00,meteohub,2013-12-09 13:15:00,
2013-12-09 08:20:00,78.3,69.3,30.18,South,191,0.0,10.0,74,0.00,,,0.00,meteohub,2013-12-09 13:20:00,
2013-12-09 08:25:00,78.4,69.1,30.19,ESE,107,0.0,10.0,73,0.00,,,0.00,meteohub,2013-12-09 13:25:00,
2013-12-09 08:30:00,78.6,69.3,30.19,South,178,1.0,8.0,73,0.00,,,0.00,meteohub,2013-12-09 13:30:00,
2013-12-09 08:35:00,78.6,69.6,30.19,ESE,109,0.0,8.0,74,0.00,,,0.00,meteohub,2013-12-09 13:35:00,
2013-12-09 08:40:00,79.0,69.6,30.19,SSE,155,1.0,7.0,73,0.00,,,0.00,meteohub,2013-12-09 13:40:00,
2013-12-09 08:45:00,79.3,70.0,30.19,SSE,163,1.0,7.0,73,0.00,,,0.00,meteohub,2013-12-09 13:45:00,
2013-12-09 08:50:00,79.5,69.6,30.19,South,178,5.0,7.0,72,0.00,,,0.00,meteohub,2013-12-09 13:50:00,
2013-12-09 08:55:00,79.5,69.6,30.19,East,98,2.0,6.0,72,0.00,,,0.00,meteohub,2013-12-09 13:55:00,
2013-12-09 09:00:00,79.5,70.2,30.19,SSE,148,1.0,11.0,73,0.00,,,0.00,meteohub,2013-12-09 14:00:00,
2013-12-09 09:05:00,79.7,69.8,30.20,South,178,2.0,11.0,72,0.00,,,0.00,meteohub,2013-12-09 14:05:00,
2013-12-09 09:10:00,79.9,70.0,30.20,ESE,115,0.0,11.0,72,0.00,,,0.00,meteohub,2013-12-09 14:10:00,
2013-12-09 09:15:00,80.1,69.8,30.20,SE,130,3.0,8.0,71,0.00,,,0.00,meteohub,2013-12-09 14:15:00,
2013-12-09 09:20:00,80.1,70.2,30.20,SSE,162,0.0,8.0,72,0.00,,,0.00,meteohub,2013-12-09 14:20:00,
2013-12-09 09:25:00,80.4,70.5,30.20,SE,134,0.0,7.0,72,0.00,,,0.00,meteohub,2013-12-09 14:25:00,
2013-12-09 09:30:00,80.4,70.5,30.20,ESE,120,4.0,9.0,72,0.00,,,0.00,meteohub,2013-12-09 14:30:00,
2013-12-09 09:35:00,80.6,71.1,30.20,ESE,105,1.0,9.0,73,0.00,,,0.00,meteohub,2013-12-09 14:35:00,
2013-12-09 09:40:00,81.0,70.2,30.20,SE,139,3.0,9.0,70,0.00,,,0.00,meteohub,2013-12-09 14:40:00,
2013-12-09 09:46:00,81.0,69.8,30.20,South,179,3.0,7.0,69,0.00,,,0.00,meteohub,2013-12-09 14:46:00,
2013-12-09 09:51:00,81.0,68.9,30.20,ESE,109,4.0,8.0,67,0.00,,,0.00,meteohub,2013-12-09 14:51:00,
2013-12-09 09:56:00,81.0,68.5,30.20,ESE,112,2.0,9.0,66,0.00,,,0.00,meteohub,2013-12-09 14:56:00,
2013-12-09 10:01:00,81.1,68.7,30.20,SSE,150,1.0,9.0,66,0.00,,,0.00,meteohub,2013-12-09 15:01:00,
2013-12-09 10:05:00,81.3,68.0,30.20,SSE,158,1.0,9.0,64,0.00,,,0.00,meteohub,2013-12-09 15:05:00,
2013-12-09 10:11:00,81.3,68.0,30.20,SE,136,4.0,9.0,64,0.00,,,0.00,meteohub,2013-12-09 15:11:00,
2013-12-09 10:16:00,81.5,68.2,30.20,ESE,121,2.0,9.0,64,0.00,,,0.00,meteohub,2013-12-09 15:16:00,
2013-12-09 10:21:00,81.5,69.1,30.20,SE,135,2.0,9.0,66,0.00,,,0.00,meteohub,2013-12-09 15:21:00,
2013-12-09 10:26:00,81.7,69.3,30.20,East,95,1.0,9.0,66,0.00,,,0.00,meteohub,2013-12-09 15:26:00,
2013-12-09 10:31:00,81.9,69.4,30.19,SE,140,5.0,9.0,66,0.00,,,0.00,meteohub,2013-12-09 15:31:00,
2013-12-09 10:36:00,81.9,68.9,30.19,SSE,166,2.0,9.0,65,0.00,,,0.00,meteohub,2013-12-09 15:36:00,
2013-12-09 10:41:00,81.9,68.0,30.19,SE,145,0.0,9.0,63,0.00,,,0.00,meteohub,2013-12-09 15:41:00,
2013-12-09 10:46:00,82.0,68.2,30.19,SE,146,1.0,9.0,63,0.00,,,0.00,meteohub,2013-12-09 15:46:00,
2013-12-09 10:51:00,82.0,67.6,30.19,NE,43,3.0,9.0,62,0.00,,,0.00,meteohub,2013-12-09 15:51:00,
2013-12-09 10:56:00,82.0,68.2,30.19,ESE,105,3.0,9.0,63,0.00,,,0.00,meteohub,2013-12-09 15:56:00,
2013-12-09 11:01:00,81.7,68.7,30.19,SSE,163,2.0,11.0,65,0.00,,,0.00,meteohub,2013-12-09 16:01:00,
2013-12-09 11:06:00,81.9,68.5,30.19,North,0,1.0,11.0,64,0.00,,,0.00,meteohub,2013-12-09 16:06:00,
2013-12-09 11:11:00,81.9,68.5,30.19,SE,136,0.0,11.0,64,0.00,,,0.00,meteohub,2013-12-09 16:11:00,
2013-12-09 11:17:00,82.2,69.8,30.19,South,175,1.0,8.0,66,0.00,,,0.00,meteohub,2013-12-09 16:17:00,
2013-12-09 11:22:00,82.6,70.5,30.18,SSE,158,1.0,8.0,67,0.00,,,0.00,meteohub,2013-12-09 16:22:00,
2013-12-09 11:27:00,82.6,70.0,30.18,SSW,202,2.0,10.0,66,0.00,,,0.00,meteohub,2013-12-09 16:27:00,
2013-12-09 11:32:00,82.6,70.0,30.18,SSW,209,5.0,11.0,66,0.00,,,0.00,meteohub,2013-12-09 16:32:00,
2013-12-09 11:37:00,82.2,70.2,30.18,South,176,3.0,11.0,67,0.00,,,0.00,meteohub,2013-12-09 16:37:00,
2013-12-09 11:42:00,82.0,69.1,30.18,SSE,161,4.0,11.0,65,0.00,,,0.00,meteohub,2013-12-09 16:42:00,
2013-12-09 11:47:00,82.0,67.3,30.18,SE,128,5.0,9.0,61,0.00,,,0.00,meteohub,2013-12-09 16:47:00,
2013-12-09 11:52:00,81.9,68.5,30.17,SSE,162,3.0,10.0,64,0.00,,,0.00,meteohub,2013-12-09 16:52:00,
2013-12-09 11:57:00,82.0,68.2,30.17,South,188,2.0,10.0,63,0.00,,,0.00,meteohub,2013-12-09 16:57:00,
2013-12-09 12:02:00,82.6,69.1,30.17,SSW,194,4.0,10.0,64,0.00,,,0.00,meteohub,2013-12-09 17:02:00,
2013-12-09 12:07:00,82.6,69.6,30.17,ESE,115,10.0,10.0,65,0.00,,,0.00,meteohub,2013-12-09 17:07:00,
2013-12-09 12:12:00,82.2,69.3,30.17,SW,232,5.0,10.0,65,0.00,,,0.00,meteohub,2013-12-09 17:12:00,
2013-12-09 12:17:00,82.0,69.1,30.16,South,184,9.0,10.0,65,0.00,,,0.00,meteohub,2013-12-09 17:17:00,
2013-12-09 12:22:00,82.0,69.1,30.16,SE,128,6.0,10.0,65,0.00,,,0.00,meteohub,2013-12-09 17:22:00,
2013-12-09 12:27:00,81.9,69.4,30.16,SE,133,3.0,10.0,66,0.00,,,0.00,meteohub,2013-12-09 17:27:00,
2013-12-09 12:32:00,81.7,68.7,30.16,SW,215,2.0,11.0,65,0.00,,,0.00,meteohub,2013-12-09 17:32:00,
2013-12-09 12:37:00,81.7,68.7,30.15,SSE,166,2.0,11.0,65,0.00,,,0.00,meteohub,2013-12-09 17:37:00,
2013-12-09 12:42:00,81.9,68.5,30.15,SSE,147,4.0,11.0,64,0.00,,,0.00,meteohub,2013-12-09 17:42:00,
2013-12-09 12:47:00,82.0,69.1,30.15,SSE,149,4.0,10.0,65,0.00,,,0.00,meteohub,2013-12-09 17:47:00,
2013-12-09 12:52:00,81.9,68.5,30.14,South,177,1.0,9.0,64,0.00,,,0.00,meteohub,2013-12-09 17:52:00,
2013-12-09 12:57:00,82.0,68.2,30.14,SE,141,2.0,9.0,63,0.00,,,0.00,meteohub,2013-12-09 17:57:00,
2013-12-09 13:02:00,82.6,69.6,30.14,ESE,113,0.0,9.0,65,0.00,,,0.00,meteohub,2013-12-09 18:02:00,
2013-12-09 13:07:00,82.4,70.0,30.14,SE,141,2.0,8.0,66,0.00,,,0.00,meteohub,2013-12-09 18:07:00,
2013-12-09 13:12:00,81.3,69.3,30.13,East,99,2.0,8.0,67,0.00,,,0.00,meteohub,2013-12-09 18:12:00,
2013-12-09 13:17:00,80.8,69.6,30.13,SE,136,4.0,9.0,69,0.00,,,0.00,meteohub,2013-12-09 18:17:00,
2013-12-09 13:22:00,81.3,69.8,30.13,South,189,2.0,9.0,68,0.00,,,0.00,meteohub,2013-12-09 18:22:00,
2013-12-09 13:27:00,81.9,68.9,30.13,SE,136,0.0,10.0,65,0.00,,,0.00,meteohub,2013-12-09 18:27:00,
2013-12-09 13:32:00,82.2,68.9,30.13,South,181,2.0,10.0,64,0.00,,,0.00,meteohub,2013-12-09 18:32:00,
2013-12-09 13:37:00,82.2,68.9,30.13,ESE,107,3.0,10.0,64,0.00,,,0.00,meteohub,2013-12-09 18:37:00,
2013-12-09 13:42:00,82.0,68.2,30.13,ESE,117,3.0,8.0,63,0.00,,,0.00,meteohub,2013-12-09 18:42:00,
2013-12-09 13:47:00,81.9,68.9,30.12,SE,145,2.0,12.0,65,0.00,,,0.00,meteohub,2013-12-09 18:47:00,
2013-12-09 13:52:00,81.7,67.8,30.13,ESE,119,3.0,12.0,63,0.00,,,0.00,meteohub,2013-12-09 18:52:00,
2013-12-09 13:57:00,81.7,68.4,30.12,South,184,4.0,12.0,64,0.00,,,0.00,meteohub,2013-12-09 18:57:00,
2013-12-09 14:02:00,81.9,68.5,30.12,South,178,4.0,11.0,64,0.00,,,0.00,meteohub,2013-12-09 19:02:00,
2013-12-09 14:07:00,81.9,68.9,30.12,ESE,117,3.0,10.0,65,0.00,,,0.00,meteohub,2013-12-09 19:07:00,
2013-12-09 14:12:00,81.7,67.8,30.12,SE,129,1.0,10.0,63,0.00,,,0.00,meteohub,2013-12-09 19:12:00,
2013-12-09 14:17:00,81.9,68.5,30.12,ENE,74,3.0,10.0,64,0.00,,,0.00,meteohub,2013-12-09 19:17:00,
2013-12-09 14:22:00,81.9,68.5,30.12,SSE,163,3.0,10.0,64,0.00,,,0.00,meteohub,2013-12-09 19:22:00,
2013-12-09 14:27:00,82.0,67.6,30.12,SSE,153,3.0,10.0,62,0.00,,,0.00,meteohub,2013-12-09 19:27:00,
2013-12-09 14:32:00,82.4,67.6,30.12,North,355,1.0,8.0,61,0.00,,,0.00,meteohub,2013-12-09 19:32:00,
2013-12-09 14:37:00,82.8,68.4,30.12,NNE,24,2.0,8.0,62,0.00,,,0.00,meteohub,2013-12-09 19:37:00,
2013-12-09 14:42:00,82.8,68.9,30.12,SSE,158,1.0,7.0,63,0.00,,,0.00,meteohub,2013-12-09 19:42:00,
2013-12-09 14:47:00,82.6,68.7,30.12,SE,125,2.0,7.0,63,0.00,,,0.00,meteohub,2013-12-09 19:47:00,
2013-12-09 14:52:00,82.4,68.5,30.12,East,99,0.0,9.0,63,0.00,,,0.00,meteohub,2013-12-09 19:52:00,
2013-12-09 14:57:00,82.4,68.5,30.12,South,184,1.0,9.0,63,0.00,,,0.00,meteohub,2013-12-09 19:57:00,
2013-12-09 15:02:00,82.0,68.2,30.11,SE,140,2.0,9.0,63,0.00,,,0.00,meteohub,2013-12-09 20:02:00,
2013-12-09 15:07:00,81.9,67.6,30.11,South,188,5.0,7.0,62,0.00,,,0.00,meteohub,2013-12-09 20:07:00,
2013-12-09 15:12:00,81.7,67.8,30.11,South,178,5.0,9.0,63,0.00,,,0.00,meteohub,2013-12-09 20:12:00,
2013-12-09 15:17:00,81.3,67.5,30.11,SSE,150,1.0,9.0,63,0.00,,,0.00,meteohub,2013-12-09 20:17:00,
2013-12-09 15:22:00,81.1,67.3,30.11,SE,137,2.0,9.0,63,0.00,,,0.00,meteohub,2013-12-09 20:22:00,
2013-12-09 15:27:00,81.1,67.3,30.11,SSW,196,1.0,9.0,63,0.00,,,0.00,meteohub,2013-12-09 20:27:00,
2013-12-09 15:32:00,81.1,67.8,30.11,SSE,155,1.0,7.0,64,0.00,,,0.00,meteohub,2013-12-09 20:32:00,
2013-12-09 15:37:00,81.0,68.0,30.11,SSE,157,0.0,7.0,65,0.00,,,0.00,meteohub,2013-12-09 20:37:00,
2013-12-09 15:42:00,80.8,68.0,30.11,ESE,123,3.0,7.0,65,0.00,,,0.00,meteohub,2013-12-09 20:42:00,
2013-12-09 15:47:00,80.6,67.8,30.12,South,172,3.0,7.0,65,0.00,,,0.00,meteohub,2013-12-09 20:47:00,
2013-12-09 15:52:00,80.6,67.3,30.11,SSW,193,5.0,9.0,64,0.00,,,0.00,meteohub,2013-12-09 20:52:00,
2013-12-09 15:57:00,80.4,67.6,30.11,ENE,57,1.0,9.0,65,0.00,,,0.00,meteohub,2013-12-09 20:57:00,
2013-12-09 16:02:00,80.4,67.1,30.11,ESE,122,1.0,9.0,64,0.00,,,0.00,meteohub,2013-12-09 21:02:00,
2013-12-09 16:07:00,80.4,67.6,30.11,ESE,115,2.0,8.0,65,0.00,,,0.00,meteohub,2013-12-09 21:07:00,
2013-12-09 16:12:00,80.4,67.6,30.11,SSE,159,1.0,6.0,65,0.00,,,0.00,meteohub,2013-12-09 21:12:00,
2013-12-09 16:17:00,80.2,67.8,30.11,SE,140,0.0,7.0,66,0.00,,,0.00,meteohub,2013-12-09 21:17:00,
2013-12-09 16:22:00,80.1,67.3,30.12,ESE,107,2.0,7.0,65,0.00,,,0.00,meteohub,2013-12-09 21:22:00,
2013-12-09 16:27:00,79.9,67.1,30.12,ESE,120,3.0,7.0,65,0.00,,,0.00,meteohub,2013-12-09 21:27:00,
2013-12-09 16:32:00,79.7,66.9,30.12,South,183,3.0,5.0,65,0.00,,,0.00,meteohub,2013-12-09 21:32:00,
2013-12-09 16:37:00,79.3,66.6,30.11,SE,134,3.0,7.0,65,0.00,,,0.00,meteohub,2013-12-09 21:37:00,
2013-12-09 16:42:00,79.2,66.4,30.11,SSE,155,0.0,7.0,65,0.00,,,0.00,meteohub,2013-12-09 21:42:00,
2013-12-09 16:47:00,79.2,66.7,30.12,ESE,115,0.0,7.0,66,0.00,,,0.00,meteohub,2013-12-09 21:47:00,
2013-12-09 16:52:00,79.0,66.6,30.12,South,169,0.0,5.0,66,0.00,,,0.00,meteohub,2013-12-09 21:52:00,
2013-12-09 16:57:00,78.6,66.4,30.12,ESE,121,0.0,5.0,66,0.00,,,0.00,meteohub,2013-12-09 21:57:00,
2013-12-09 17:02:00,78.4,66.6,30.12,SSE,160,1.0,5.0,67,0.00,,,0.00,meteohub,2013-12-09 22:02:00,
2013-12-09 17:07:00,78.3,66.7,30.12,SSE,167,0.0,5.0,68,0.00,,,0.00,meteohub,2013-12-09 22:07:00,
2013-12-09 17:12:00,77.9,66.6,30.12,South,175,0.0,6.0,68,0.00,,,0.00,meteohub,2013-12-09 22:12:00,
2013-12-09 17:17:00,77.7,66.4,30.12,SSW,194,0.0,6.0,68,0.00,,,0.00,meteohub,2013-12-09 22:17:00,
2013-12-09 17:22:00,77.5,66.6,30.12,South,170,0.0,6.0,69,0.00,,,0.00,meteohub,2013-12-09 22:22:00,
2013-12-09 17:27:00,77.2,66.2,30.12,SSE,166,0.0,5.0,69,0.00,,,0.00,meteohub,2013-12-09 22:27:00,
2013-12-09 17:32:00,76.8,66.2,30.12,SSE,148,0.0,5.0,70,0.00,,,0.00,meteohub,2013-12-09 22:32:00,
2013-12-09 17:37:00,76.6,66.6,30.12,SE,132,0.0,2.0,71,0.00,,,0.00,meteohub,2013-12-09 22:37:00,
2013-12-09 17:42:00,76.5,66.7,30.12,SE,146,0.0,2.0,72,0.00,,,0.00,meteohub,2013-12-09 22:42:00,
2013-12-09 17:47:00,76.3,66.9,30.12,SSE,159,0.0,1.0,73,0.00,,,0.00,meteohub,2013-12-09 22:47:00,
2013-12-09 17:52:00,75.9,66.6,30.12,SSE,160,0.0,2.0,73,0.00,,,0.00,meteohub,2013-12-09 22:52:00,
2013-12-09 17:57:00,75.9,66.6,30.12,SE,132,1.0,2.0,73,0.00,,,0.00,meteohub,2013-12-09 22:57:00,
2013-12-09 18:02:00,75.9,66.6,30.12,SE,143,1.0,4.0,73,0.00,,,0.00,meteohub,2013-12-09 23:02:00,
2013-12-09 18:07:00,75.7,66.9,30.12,SSE,158,0.0,4.0,74,0.00,,,0.00,meteohub,2013-12-09 23:07:00,
2013-12-09 18:12:00,75.7,66.9,30.13,ESE,123,0.0,4.0,74,0.00,,,0.00,meteohub,2013-12-09 23:12:00,
2013-12-09 18:17:00,75.7,67.3,30.13,SE,139,1.0,3.0,75,0.00,,,0.00,meteohub,2013-12-09 23:17:00,
2013-12-09 18:22:00,75.9,67.5,30.13,SSE,168,0.0,5.0,75,0.00,,,0.00,meteohub,2013-12-09 23:22:00,
2013-12-09 18:27:00,75.9,67.8,30.14,SE,135,2.0,5.0,76,0.00,,,0.00,meteohub,2013-12-09 23:27:00,
2013-12-09 18:32:00,75.9,67.5,30.14,South,176,0.0,5.0,75,0.00,,,0.00,meteohub,2013-12-09 23:32:00,
2013-12-09 18:37:00,75.9,67.1,30.14,SSE,166,0.0,5.0,74,0.00,,,0.00,meteohub,2013-12-09 23:37:00,
2013-12-09 18:42:00,75.9,67.1,30.14,SSE,148,1.0,5.0,74,0.00,,,0.00,meteohub,2013-12-09 23:42:00,
2013-12-09 18:47:00,75.9,67.1,30.14,SE,136,0.0,4.0,74,0.00,,,0.00,meteohub,2013-12-09 23:47:00,
2013-12-09 18:52:00,75.7,67.3,30.14,SE,134,0.0,4.0,75,0.00,,,0.00,meteohub,2013-12-09 23:52:00,
2013-12-09 18:57:00,75.7,67.3,30.14,SE,134,0.0,5.0,75,0.00,,,0.00,meteohub,2013-12-09 23:57:00,
2013-12-09 19:02:00,75.7,67.6,30.14,SE,138,0.0,5.0,76,0.00,,,0.00,meteohub,2013-12-10 00:02:00,
2013-12-09 19:07:00,75.7,67.6,30.14,SE,138,0.0,5.0,76,0.00,,,0.00,meteohub,2013-12-10 00:07:00,
2013-12-09 19:12:00,75.6,67.5,30.14,ESE,122,0.0,3.0,76,0.00,,,0.00,meteohub,2013-12-10 00:12:00,
2013-12-09 19:17:00,75.6,67.5,30.15,ESE,119,0.0,3.0,76,0.00,,,0.00,meteohub,2013-12-10 00:17:00,
2013-12-09 19:22:00,75.6,67.1,30.15,SE,128,0.0,3.0,75,0.00,,,0.00,meteohub,2013-12-10 00:22:00,
2013-12-09 19:27:00,75.6,67.1,30.15,SE,128,0.0,2.0,75,0.00,,,0.00,meteohub,2013-12-10 00:27:00,
2013-12-09 19:32:00,75.4,66.9,30.15,SE,134,0.0,2.0,75,0.00,,,0.00,meteohub,2013-12-10 00:32:00,
2013-12-09 19:37:00,75.4,67.3,30.15,ESE,123,0.0,1.0,76,0.00,,,0.00,meteohub,2013-12-10 00:37:00,
2013-12-09 19:42:00,75.4,67.3,30.15,SE,125,0.0,2.0,76,0.00,,,0.00,meteohub,2013-12-10 00:42:00,
2013-12-09 19:47:00,75.6,67.5,30.15,ESE,111,0.0,3.0,76,0.00,,,0.00,meteohub,2013-12-10 00:47:00,
2013-12-09 19:52:00,75.6,67.5,30.15,SE,145,0.0,3.0,76,0.00,,,0.00,meteohub,2013-12-10 00:52:00,
2013-12-09 19:57:00,75.6,67.5,30.15,SSE,150,0.0,3.0,76,0.00,,,0.00,meteohub,2013-12-10 00:57:00,
2013-12-09 20:02:00,75.6,67.5,30.15,SSE,150,0.0,2.0,76,0.00,,,0.00,meteohub,2013-12-10 01:02:00,
2013-12-09 20:07:00,75.6,67.1,30.15,ESE,120,0.0,2.0,75,0.00,,,0.00,meteohub,2013-12-10 01:07:00,
2013-12-09 20:12:00,75.6,67.5,30.15,ESE,119,0.0,2.0,76,0.00,,,0.00,meteohub,2013-12-10 01:12:00,
2013-12-09 20:17:00,75.4,67.3,30.15,ESE,120,0.0,2.0,76,0.00,,,0.00,meteohub,2013-12-10 01:17:00,
2013-12-09 20:22:00,75.4,67.3,30.15,SE,135,0.0,1.0,76,0.00,,,0.00,meteohub,2013-12-10 01:22:00,
2013-12-09 20:27:00,75.2,67.1,30.15,SE,135,0.0,1.0,76,0.00,,,0.00,meteohub,2013-12-10 01:27:00,
2013-12-09 20:32:00,75.2,66.7,30.16,ENE,59,0.0,1.0,75,0.00,,,0.00,meteohub,2013-12-10 01:32:00,
2013-12-09 20:37:00,75.4,66.6,30.15,ESE,104,2.0,3.0,74,0.00,,,0.00,meteohub,2013-12-10 01:37:00,
2013-12-09 20:42:00,75.7,66.4,30.16,SE,140,0.0,4.0,73,0.00,,,0.00,meteohub,2013-12-10 01:42:00,
2013-12-09 20:47:00,75.9,67.1,30.16,SSE,155,1.0,4.0,74,0.00,,,0.00,meteohub,2013-12-10 01:47:00,
2013-12-09 20:52:00,75.9,67.1,30.16,SE,130,0.0,4.0,74,0.00,,,0.00,meteohub,2013-12-10 01:52:00,
2013-12-09 20:57:00,76.1,67.6,30.16,SE,126,0.0,4.0,75,0.00,,,0.00,meteohub,2013-12-10 01:57:00,
2013-12-09 21:02:00,76.1,68.0,30.16,SE,142,0.0,2.0,76,0.00,,,0.00,meteohub,2013-12-10 02:02:00,
2013-12-09 21:07:00,76.1,68.4,30.16,SSE,163,1.0,3.0,77,0.00,,,0.00,meteohub,2013-12-10 02:07:00,
2013-12-09 21:12:00,76.3,68.9,30.16,SE,145,2.0,5.0,78,0.00,,,0.00,meteohub,2013-12-10 02:12:00,
2013-12-09 21:17:00,76.5,69.1,30.16,East,92,0.0,7.0,78,0.00,,,0.00,meteohub,2013-12-10 02:17:00,
2013-12-09 21:22:00,76.5,68.7,30.16,SE,139,0.0,7.0,77,0.00,,,0.00,meteohub,2013-12-10 02:22:00,
2013-12-09 21:27:00,76.5,69.1,30.16,ESE,113,0.0,7.0,78,0.00,,,0.00,meteohub,2013-12-10 02:27:00,
2013-12-09 21:32:00,76.5,69.1,30.16,SE,128,0.0,5.0,78,0.00,,,0.00,meteohub,2013-12-10 02:32:00,
2013-12-09 21:37:00,76.3,68.9,30.16,ESE,106,0.0,5.0,78,0.00,,,0.00,meteohub,2013-12-10 02:37:00,
2013-12-09 21:42:00,76.3,68.9,30.16,South,170,0.0,5.0,78,0.00,,,0.00,meteohub,2013-12-10 02:42:00,
2013-12-09 21:47:00,76.3,68.9,30.16,South,188,0.0,5.0,78,0.00,,,0.00,meteohub,2013-12-10 02:47:00,
2013-12-09 21:52:00,76.1,69.1,30.16,SE,126,0.0,5.0,79,0.00,,,0.00,meteohub,2013-12-10 02:52:00,
2013-12-09 21:57:00,76.1,69.1,30.16,SSW,193,2.0,5.0,79,0.00,,,0.00,meteohub,2013-12-10 02:57:00,
2013-12-09 22:02:00,75.9,68.9,30.16,South,183,1.0,5.0,79,0.00,,,0.00,meteohub,2013-12-10 03:02:00,
2013-12-09 22:07:00,75.9,68.9,30.16,SE,136,0.0,4.0,79,0.00,,,0.00,meteohub,2013-12-10 03:07:00,
2013-12-09 22:12:00,76.1,69.1,30.16,SE,141,0.0,4.0,79,0.00,,,0.00,meteohub,2013-12-10 03:12:00,
2013-12-09 22:17:00,76.1,69.1,30.16,SSE,165,0.0,7.0,79,0.00,,,0.00,meteohub,2013-12-10 03:17:00,
2013-12-09 22:22:00,76.1,69.1,30.16,ESE,109,0.0,7.0,79,0.00,,,0.00,meteohub,2013-12-10 03:22:00,
2013-12-09 22:27:00,75.9,68.9,30.16,SE,126,0.0,7.0,79,0.00,,,0.00,meteohub,2013-12-10 03:27:00,
2013-12-09 22:32:00,75.9,69.3,30.16,SE,130,0.0,3.0,80,0.00,,,0.00,meteohub,2013-12-10 03:32:00,
2013-12-09 22:37:00,75.9,69.3,30.15,SE,145,2.0,3.0,80,0.00,,,0.00,meteohub,2013-12-10 03:37:00,
2013-12-09 22:42:00,75.9,69.3,30.15,SE,143,0.0,3.0,80,0.00,,,0.00,meteohub,2013-12-10 03:42:00,
2013-12-09 22:47:00,75.7,69.1,30.15,SE,134,0.0,2.0,80,0.00,,,0.00,meteohub,2013-12-10 03:47:00,
2013-12-09 22:52:00,75.7,69.4,30.15,South,169,0.0,2.0,81,0.00,,,0.00,meteohub,2013-12-10 03:52:00,
2013-12-09 22:57:00,75.7,69.4,30.15,NE,53,0.0,2.0,81,0.00,,,0.00,meteohub,2013-12-10 03:57:00,
2013-12-09 23:02:00,75.9,69.6,30.14,SE,142,0.0,5.0,81,0.00,,,0.00,meteohub,2013-12-10 04:02:00,
2013-12-09 23:07:00,75.9,69.6,30.14,ESE,115,0.0,6.0,81,0.00,,,0.00,meteohub,2013-12-10 04:07:00,
2013-12-09 23:12:00,76.1,69.8,30.14,SSW,207,0.0,6.0,81,0.00,,,0.00,meteohub,2013-12-10 04:12:00,
2013-12-09 23:17:00,75.9,69.6,30.14,SE,140,0.0,6.0,81,0.00,,,0.00,meteohub,2013-12-10 04:17:00,
2013-12-09 23:22:00,75.9,69.6,30.14,SE,124,1.0,6.0,81,0.00,,,0.00,meteohub,2013-12-10 04:22:00,
2013-12-09 23:27:00,76.1,69.8,30.14,ESE,109,0.0,6.0,81,0.00,,,0.00,meteohub,2013-12-10 04:27:00,
2013-12-09 23:32:00,76.3,70.7,30.14,South,169,0.0,6.0,83,0.00,,,0.00,meteohub,2013-12-10 04:32:00,
2013-12-09 23:37:00,76.3,70.7,30.14,SSE,159,3.0,7.0,83,0.00,,,0.00,meteohub,2013-12-10 04:37:00,
2013-12-09 23:42:00,76.3,70.3,30.14,ESE,117,1.0,7.0,82,0.00,,,0.00,meteohub,2013-12-10 04:42:00,
2013-12-09 23:47:00,76.3,70.3,30.14,ESE,111,0.0,8.0,82,0.00,,,0.00,meteohub,2013-12-10 04:47:00,
2013-12-09 23:52:00,76.3,70.0,30.14,SE,146,2.0,8.0,81,0.00,,,0.00,meteohub,2013-12-10 04:52:00,
2013-12-09 23:57:00,76.3,70.0,30.14,ESE,117,2.0,8.0,81,0.00,,,0.00,meteohub,2013-12-10 04:57:00,